Stations météo

réclame
Mon MeteoGroup
Northolt, Grande-Bretagne (3672): Température de l'air & dewpoint: 20.09.2018 04:00:00 - 26.09.2018 04:00:00 (BST)Northolt, Grande-Bretagne (3672): Température de l'air -20cm & Température de l'air -100cm: 20.09.2018 04:00:00 - 26.09.2018 04:00:00 (BST)Northolt, Grande-Bretagne (3672): Vitesse du vent & gusts: 20.09.2018 04:00:00 - 26.09.2018 04:00:00 (BST)Northolt, Grande-Bretagne (3672): Direction du vent: 20.09.2018 04:00:00 - 26.09.2018 04:00:00 (BST)Northolt, Grande-Bretagne (3672): reduced air pressure: 20.09.2018 04:00:00 - 26.09.2018 04:00:00 (BST)Northolt, Grande-Bretagne (3672): visibility: 20.09.2018 04:00:00 - 26.09.2018 04:00:00 (BST)Northolt, Grande-Bretagne (3672): Quantités de précipitations: 20.09.2018 04:00:00 - 26.09.2018 04:00:00 (BST)
Date & Time tt [°C] td [°C] tt -20cm [°C] tt -100cm [°C] ff [km/h] ff [knt] fx [km/h] fx [knt] dd ppp [hPa] vv [km] rr [mm]
26.09.2018 04:00:00 4,3 3,3 - - 4 2 - - WNW 1034,0 10 0,0
26.09.2018 03:00:00 4,7 3,6 - - 0 0 - - N 1034,5 24 0,0
26.09.2018 02:00:00 5,3 4,3 - - 2 1 - - SSE 1034,9 21 0,0
26.09.2018 01:00:00 6,5 4,8 - - 0 0 - - N 1035,1 28 0,0
26.09.2018 00:00:00 7,5 5,1 - - 4 2 - - S 1035,3 10 0,0
25.09.2018 23:00:00 8,5 4,7 - - 2 1 - - NNE 1035,9 10 0,0
25.09.2018 22:00:00 10,7 4,8 - - 5 3 - - SW 1035,9 10 0,0
25.09.2018 21:00:00 11,6 4,4 - - 8 4 - - SSW 1035,9 10 0,0
25.09.2018 20:00:00 12,8 3,8 - - 11 6 - - SSW 1035,8 10 0,0
25.09.2018 19:00:00 14,0 5,0 - - 13 7 - - SSW 1035,6 45 0,0
25.09.2018 18:00:00 16,1 5,1 - - 15 8 - - SSW 1035,8 10 0,0
25.09.2018 17:00:00 17,0 5,0 - - 15 8 - - SW 1035,8 10 0,0
25.09.2018 16:00:00 17,4 4,6 - - 16 9 - - SSW 1036,2 10 0,0
25.09.2018 15:00:00 17,9 5,3 - - 16 9 - - SSW 1036,9 10 0,0
25.09.2018 14:00:00 16,5 5,0 - - 16 9 - - SSW 1037,7 10 0,0
25.09.2018 13:00:00 16,3 5,7 - - 16 9 - - SW 1038,6 10 0,0
25.09.2018 12:00:00 15,8 6,2 - - 9 5 - - SSE 1039,1 10 0,0
25.09.2018 11:00:00 14,0 3,8 - - 5 3 - - S 1039,5 30 0,0
25.09.2018 10:00:00 10,3 7,1 14,4 16,7 2 1 - - S 1039,5 10 0,0
25.09.2018 09:00:00 5,4 4,2 - - 2 1 - - WNW 1039,3 10 0,0
25.09.2018 08:00:00 2,3 1,6 - - 2 1 - - N 1039,1 10 0,0
25.09.2018 07:00:00 2,4 1,9 - - 2 1 - - W 1038,7 25 0,0
25.09.2018 06:00:00 2,0 1,4 - - 2 1 - - NNE 1039,0 10 0,0
25.09.2018 05:00:00 2,5 2,0 - - 2 1 - - W 1039,0 10 0,0
25.09.2018 04:00:00 2,7 2,0 - - 2 1 - - WNW 1039,1 25 0,0
25.09.2018 03:00:00 3,0 2,2 - - 4 2 - - NNW 1039,1 23 0,0
25.09.2018 02:00:00 3,6 2,5 - - 2 1 - - N 1039,3 10 0,0
25.09.2018 01:00:00 3,9 2,5 - - 4 2 - - W 1039,4 30 0,0
25.09.2018 00:00:00 4,2 2,5 - - 2 1 - - N 1039,4 10 0,0
24.09.2018 23:00:00 5,2 2,3 - - 4 2 - - WNW 1039,3 10 0,0
24.09.2018 22:00:00 6,0 2,8 - - 0 0 - - N 1039,1 10 0,0
24.09.2018 21:00:00 8,2 2,0 - - 4 2 - - W 1038,6 10 0,0
24.09.2018 20:00:00 9,8 1,7 - - 2 1 - - WNW 1038,4 10 0,0
24.09.2018 19:00:00 12,3 0,6 - - 5 3 - - NNW 1037,9 10 0,0
24.09.2018 18:00:00 14,7 -0,2 - - 13 7 - - N 1037,4 10 0,0
24.09.2018 17:00:00 15,3 1,6 - - 13 7 - - NNE 1037,4 10 0,0
24.09.2018 16:00:00 15,2 2,3 - - 15 8 - - NW 1037,8 10 0,0
24.09.2018 15:00:00 15,2 2,4 - - 11 6 - - NNE 1038,1 10 0,0
24.09.2018 14:00:00 14,6 3,0 - - 13 7 - - N 1038,2 10 0,0
24.09.2018 13:00:00 13,6 2,6 - - 15 8 - - NNW 1038,3 10 0,0
24.09.2018 12:00:00 12,8 4,1 - - 16 9 - - NNW 1038,6 10 0,0
24.09.2018 11:00:00 11,9 4,0 - - 16 9 - - NNW 1038,4 10 0,0
24.09.2018 10:00:00 10,3 6,1 15,0 16,7 13 7 - - NNW 1037,9 10 0,0
24.09.2018 09:00:00 7,3 6,0 - - 5 3 - - W 1037,4 10 0,0
24.09.2018 08:00:00 4,3 3,5 - - 2 1 - - W 1036,8 10 0,0
24.09.2018 07:00:00 4,7 4,2 - - 2 1 - - SW 1036,1 10 0,0
24.09.2018 06:00:00 3,4 2,8 - - 5 3 - - N 1035,6 30 0,0
24.09.2018 05:00:00 4,1 3,7 - - 4 2 - - SW 1035,3 10 0,0
24.09.2018 04:00:00 4,1 3,7 - - 4 2 - - SW 1034,6 10 0,0
24.09.2018 03:00:00 4,9 4,2 - - 2 1 - - W 1034,3 10 0,0
24.09.2018 02:00:00 5,3 4,5 - - 8 4 - - W 1033,5 10 0,0
24.09.2018 01:00:00 5,8 4,9 - - 5 3 - - W 1032,5 10 0,0
24.09.2018 00:00:00 6,4 5,2 - - 5 3 - - W 1031,7 10 0,0
23.09.2018 23:00:00 8,0 6,3 - - 9 5 - - NW 1030,6 30 0,0
23.09.2018 22:00:00 9,6 6,6 - - 8 4 - - N 1029,5 10 0,0
23.09.2018 21:00:00 9,0 5,1 - - 4 2 - - NNW 1028,5 10 0,0
23.09.2018 20:00:00 10,5 4,8 - - 9 5 - - NNW 1027,0 10 0,0
23.09.2018 19:00:00 11,6 2,9 - - 9 5 - - NW 1025,0 10 0,0
23.09.2018 18:00:00 13,0 2,7 - - 16 9 - - NNW 1023,4 10 0,0
23.09.2018 17:00:00 13,8 3,1 - - 26 14 - - NNW 1022,4 10 0,0
23.09.2018 16:00:00 12,6 4,5 - - 22 12 - - NNW 1021,2 10 0,0
23.09.2018 15:00:00 12,1 4,7 - - 26 14 - - NNW 1020,3 10 0,0
23.09.2018 14:00:00 11,0 6,7 - - 18 10 - - NNW 1019,5 10 0,0
23.09.2018 13:00:00 9,7 6,8 - - 11 6 - - NNW 1018,5 10 0,2
23.09.2018 12:00:00 8,8 6,7 - - 18 10 - - N 1017,7 10 0,4
23.09.2018 11:00:00 8,9 7,3 - - 26 14 - - N 1016,7 10 2,0
23.09.2018 10:00:00 9,3 8,6 16,0 16,9 13 7 - - N 1015,9 4,5 4,4
23.09.2018 09:00:00 9,4 8,6 - - 15 8 - - N 1014,5 4,0 3,2
23.09.2018 08:00:00 9,2 8,7 - - 9 5 - - NNE 1013,6 3,0 2,0
23.09.2018 07:00:00 9,3 8,6 - - 15 8 - - NE 1013,4 2,5 0,4
23.09.2018 06:00:00 9,7 8,3 - - 11 6 - - NE 1013,9 5 0,0
23.09.2018 05:00:00 10,3 9,2 - - 15 8 - - NE 1013,4 9 0,0
23.09.2018 04:00:00 10,5 9,2 - - 15 8 - - NNE 1013,9 18 0,0
23.09.2018 03:00:00 10,3 9,6 - - 13 7 - - NE 1013,9 10 0,2
23.09.2018 02:00:00 10,7 9,8 - - 15 8 - - NE 1014,3 3,1 0,0
23.09.2018 01:00:00 10,8 10,0 - - 15 8 - - NE 1014,2 10 0,0
23.09.2018 00:00:00 10,9 10,1 - - 15 8 - - ENE 1014,2 14 0,0
22.09.2018 23:00:00 10,8 10,1 - - 13 7 - - ENE 1014,1 11 0,0
22.09.2018 22:00:00 10,6 10,0 - - 15 8 - - E 1013,9 8 0,0
22.09.2018 21:00:00 10,4 9,8 - - 15 8 - - E 1014,6 10 0,2
22.09.2018 20:00:00 10,7 10,2 - - 13 7 - - E 1014,9 3,4 0,0
22.09.2018 19:00:00 10,7 10,1 - - 13 7 - - ESE 1015,1 5 0,8
22.09.2018 18:00:00 11,0 10,3 - - 13 7 - - SE 1015,5 7 0,8
22.09.2018 17:00:00 11,2 10,1 - - 9 5 - - SE 1016,5 7 0,8
22.09.2018 16:00:00 11,6 9,8 - - 9 5 - - SE 1017,5 10 1,2
22.09.2018 15:00:00 11,7 9,7 - - 4 2 - - S 1018,1 5 0,6
22.09.2018 14:00:00 12,2 9,5 - - 5 3 - - W 1018,8 10 0,4
22.09.2018 13:00:00 11,9 10,3 - - 8 4 - - W 1019,9 8 0,8
22.09.2018 12:00:00 11,2 9,2 - - 15 8 - - W 1019,9 10 1,0
22.09.2018 11:00:00 12,7 9,4 - - 16 9 - - W 1019,8 10 0,0
22.09.2018 10:00:00 12,5 8,9 16,5 17,0 13 7 - - W 1019,7 10 0,0
22.09.2018 09:00:00 11,7 9,0 - - 9 5 - - WSW 1019,5 10 0,0
22.09.2018 08:00:00 11,1 8,7 - - 15 8 - - W 1019,2 10 0,0
22.09.2018 07:00:00 11,0 8,4 - - 13 7 - - W 1019,5 10 0,0
22.09.2018 06:00:00 11,2 8,4 - - 13 7 - - WSW 1018,9 22 0,0
22.09.2018 05:00:00 11,1 8,3 - - 11 6 - - WSW 1019,0 25 0,0
22.09.2018 04:00:00 11,2 8,2 - - 11 6 - - W 1019,4 10 0,0
22.09.2018 03:00:00 10,7 7,8 - - 11 6 - - WSW 1019,0 10 0,0
22.09.2018 02:00:00 10,7 7,5 - - 15 8 - - WSW 1018,7 10 0,0
22.09.2018 01:00:00 10,8 7,3 - - 13 7 - - WSW 1018,6 10 0,0
22.09.2018 00:00:00 11,2 7,7 - - 16 9 - - WSW 1018,6 10 0,0
21.09.2018 23:00:00 11,5 7,5 - - 15 8 - - WSW 1017,8 10 0,0
21.09.2018 22:00:00 11,8 7,2 - - 13 7 - - WSW 1017,3 10 0,0
21.09.2018 21:00:00 12,9 6,7 - - 21 11 - - W 1016,4 10 0,0
21.09.2018 20:00:00 13,7 5,5 - - 18 10 - - W 1015,3 10 0,0
21.09.2018 19:00:00 14,9 5,4 - - 22 12 46 25 W 1014,1 10 0,0
21.09.2018 18:00:00 16,0 4,8 - - 35 19 54 29 W 1012,7 50 0,0
21.09.2018 17:00:00 16,0 7,1 - - 35 19 61 33 W 1011,7 10 0,0
21.09.2018 16:00:00 15,8 7,2 - - 46 25 70 38 W 1011,0 10 0,0
21.09.2018 15:00:00 15,8 7,1 - - 42 23 68 37 W 1010,5 10 0,0
21.09.2018 14:00:00 13,9 7,3 - - 39 21 65 35 W 1010,5 10 0,0
21.09.2018 13:00:00 14,7 5,0 - - 39 21 57 31 WSW 1009,3 10 0,0
21.09.2018 12:00:00 15,5 6,1 - - 34 18 59 32 W 1008,7 10 0,0
21.09.2018 11:00:00 14,1 6,8 - - 37 20 61 33 W 1008,5 10 0,0
21.09.2018 10:00:00 13,0 5,4 17,5 17,0 31 17 50 27 W 1008,1 10 0,0
21.09.2018 09:00:00 11,2 5,5 - - 29 16 46 25 W 1007,0 10 0,0
21.09.2018 08:00:00 10,4 6,0 - - 24 13 - - W 1005,8 10 0,0
21.09.2018 07:00:00 10,5 6,7 - - 26 14 - - W 1004,0 10 0,0
21.09.2018 06:00:00 11,9 7,6 - - 26 14 46 25 W 1002,7 10 0,0
21.09.2018 05:00:00 12,5 8,7 - - 31 17 46 25 W 1001,2 35 0,0
21.09.2018 04:00:00 13,3 9,9 - - 28 15 57 31 WSW 999,6 10 0,2
21.09.2018 03:00:00 14,6 11,8 - - 34 18 83 45 W 998,4 10 0,2
21.09.2018 02:00:00 17,2 16,3 - - 34 18 67 36 SW 996,9 2,1 2,6
21.09.2018 01:00:00 17,8 15,7 - - 37 20 61 33 SSW 997,7 10 0,2
21.09.2018 00:00:00 18,2 15,6 - - 34 18 54 29 SSW 999,0 10 0,2
20.09.2018 23:00:00 18,6 15,1 - - 34 18 52 28 SSW 1000,7 10 0,0
20.09.2018 22:00:00 18,7 15,5 - - 26 14 - - SSW 1002,4 21 0,2
20.09.2018 21:00:00 17,9 15,7 - - 26 14 54 29 SW 1004,1 3,8 0,4
20.09.2018 20:00:00 19,6 14,2 - - 28 15 54 29 SW 1004,7 10 0,0
20.09.2018 19:00:00 19,9 13,7 - - 29 16 57 31 SW 1005,7 10 0,0
20.09.2018 18:00:00 20,2 13,8 - - 41 22 63 34 SW 1006,6 10 0,0
20.09.2018 17:00:00 20,8 13,7 - - 35 19 61 33 SW 1007,3 10 0,0
20.09.2018 16:00:00 21,2 13,7 - - 37 20 57 31 SW 1008,1 10 0,0
20.09.2018 15:00:00 20,6 13,0 - - 34 18 57 31 SW 1009,6 10 0,0
20.09.2018 14:00:00 19,1 14,2 - - 31 17 52 28 SW 1010,2 10 0,0
20.09.2018 13:00:00 19,2 14,6 - - 24 13 - - SW 1010,6 10 0,0
20.09.2018 12:00:00 18,4 16,0 - - 26 14 - - SSW 1011,2 10 0,2
20.09.2018 11:00:00 17,9 16,3 - - 21 11 - - SW 1011,9 8 0,6
20.09.2018 10:00:00 18,5 15,3 17,7 17,0 26 14 - - SW 1011,9 10 0,0
20.09.2018 09:00:00 18,2 14,5 - - 22 12 - - SW 1012,0 10 0,0
20.09.2018 08:00:00 17,7 15,0 - - 22 12 - - SW 1012,1 10 0,0
20.09.2018 07:00:00 17,1 15,2 - - 21 11 - - SSW 1011,8 10 0,0
20.09.2018 06:00:00 17,6 14,7 - - 22 12 - - SW 1012,2 10 0,0
20.09.2018 05:00:00 17,7 14,8 - - 24 13 - - SSW 1012,2 11 0,0
20.09.2018 04:00:00 17,7 14,9 - - 21 11 - - SSW 1012,6 10 0,0

tt = Température de l'air
td = dewpoint
tt -20cm = Température de l'air -20cm
tt -100cm = Température de l'air -100cm
ff = Vitesse du vent
fx = gusts
dd = Direction du vent
ppp = reduced air pressure
vv = visibility
rr = Quantités de précipitations

stations d'obs. à proximité